Location: Aussurucq
(43.1493°N, 0.9337°W)
Time: 04:19:10
(UTC+00:00)

Daily predictions for brighter satellites

Satellite Brightness Start Highest point End
(mag) Time Altitude Azimuth Time Altitude Azimuth Time Altitude Azimuth
COSMOS 2455 4.3 00:04:46 21° ESE 00:05:25 22° ESE 00:09:51 10° ENE
Nadezhda 1 Rocket 3.9 00:04:29 49° SSW 00:06:14 78° W 00:12:28 10° N
MetOp-A 3.3 00:06:33 76° NNE 00:06:33 76° NNE 00:10:08 10° NNW
Cosmos 2082 Rocket 2.3 00:02:45 10° NNW 00:08:15 56° WSW 00:09:02 51° SW
Cosmos 2278 Rocket 3.7 00:06:22 15° WSW 00:10:14 30° NW 00:15:11 10° N
Cosmos 1110 Rocket 4.2 00:11:05 10° NNW 00:16:06 53° WSW 00:16:32 51° SW
SL-8 R/B 3.6 00:15:45 54° WSW 00:16:48 83° NNW 00:21:34 10° ENE
Cosmos 1452 Rocket 3.4 00:14:50 10° NNW 00:20:06 78° WSW 00:20:55 63° S
USA 308 4.5 00:23:07 20° ENE 00:23:07 20° ENE 00:24:46 10° ENE
NOSS 3-1 (C) 2.8 00:22:32 63° SE 00:22:43 63° ESE 00:27:56 10° NE
CZ-3B R/B 3.7 00:28:33 41° SSW 00:31:14 73° SE 00:55:20 10° NE
Cosmos 967 Rocket 4.5 00:29:04 44° SW 00:31:18 87° NW 00:37:49 10° NNE
Cosmos 972 Rocket 4.0 00:28:18 10° NNW 00:33:57 80° WSW 00:34:56 60° S
COSMOS 2406 3.1 00:30:08 10° NNW 00:35:49 74° WSW 00:37:02 55° S
Cosmos 2341 Rocket 4.0 00:30:01 10° N 00:36:17 80° E 00:38:22 45° SSE
IRIDIUM 104 4.4 00:33:25 10° N 00:38:35 61° W 00:39:29 52° SW
SL-8 Rocket 3.9 00:33:49 10° N 00:40:00 88° E 00:41:58 47° S
SL-4 R/B 3.3 00:42:23 25° ENE 00:42:23 25° ENE 00:43:50 10° ENE
Cosmos 2297 3.7 00:45:21 52° S 00:46:44 74° ESE 00:52:27 10° NNE
Cosmos 2369 Rocket 2.1 00:50:46 52° SSW 00:52:12 87° WNW 00:57:50 10° NNE
Lacrosse 4 Rocket 3.1 00:49:53 10° N 00:53:36 30° NE 00:56:30 14° ESE
DELTA 2 DEB (DPAF) 4.1 00:50:38 10° NNE 00:53:47 51° ENE 00:53:47 51° ENE
CZ-2C R/B 3.1 00:55:17 39° WSW 00:55:52 40° W 01:00:46 10° NNW
USA 290 3.2 00:54:44 10° NNW 00:57:15 45° NNE 00:57:15 45° NNE
Cosmos 1959 Rocket 4.4 00:51:55 10° N 00:58:11 86° W 01:00:25 43° S
Cosmos 2228 Rocket 3.5 00:59:27 46° W 00:59:51 48° WNW 01:04:07 10° N
ADEOS Rocket 4.2 00:57:38 10° NNE 01:03:07 32° E 01:05:49 22° SE
USA 276 3.9 01:09:04 25° NNW 01:09:26 26° NNW 01:12:00 10° NE
Geosat 4.4 01:04:54 10° NNE 01:09:48 56° WNW 01:11:26 38° WSW
Cosmos 1818 3.5 01:09:43 50° SSW 01:11:06 76° ESE 01:16:34 10° NE
ARIANE 6 FM1 Upper Stage 3.5 01:16:12 35° W 01:17:17 43° NW 01:21:15 10° NNE
Cosmos 1300 Rocket 3.5 01:13:55 10° N 01:18:16 79° E 01:19:07 56° SSE
Meteor 2-5 Rocket 4.4 01:16:25 34° WSW 01:18:20 46° WNW 01:23:58 10° N
Cosmos 1315 Rocket 4.0 01:16:20 10° NNW 01:19:10 29° WNW 01:19:10 29° WNW
Cosmos 1703 Rocket 3.9 01:25:41 46° WSW 01:26:19 50° W 01:30:36 10° N
Cosmos 2181 Rocket 4.2 01:25:44 37° SW 01:28:10 60° W 01:34:29 10° N
ATLAS 5 CENTAUR R/B 2.9 01:30:58 15° WNW 01:31:38 16° NW 01:33:42 10° N
Nadezhda 3 Rocket 4.0 01:29:57 36° S 01:32:42 83° E 01:38:59 10° N
SJ 16-02 2.9 01:39:46 20° SE 01:41:23 25° E 01:44:54 10° NE
PSLV R/B 3.9 01:37:43 10° N 01:41:33 60° WNW 01:42:06 52° WSW
Cosmos 921 Rocket 3.3 01:41:10 41° SSE 01:42:17 55° ESE 01:46:24 10° NNE
USA 308 3.6 01:41:52 30° WNW 01:43:07 42° NNW 01:47:09 10° NE
Nimbus 7 Rocket 4.4 01:38:54 10° NNE 01:44:48 82° ESE 01:47:36 33° S
ACS3 Solar Sail 3.0 01:40:49 10° N 01:45:30 27° WNW 01:48:09 19° WSW
Cosmos 1821 Rocket 4.4 01:42:54 10° NNW 01:48:37 44° W 01:50:51 32° SW
Spot 1 4.4 01:44:19 10° N 01:49:17 73° WNW 01:51:01 39° SSW
COSMOS 2455 3.0 01:47:52 31° SW 01:50:47 65° WNW 01:56:47 10° NNE
IDEFIX/ARIANE 42P 2.5 01:49:32 10° NNE 01:54:48 87° ESE 01:57:12 34° SSW
Iridium 82 3.9 02:00:15 68° NW 02:00:15 68° NW 02:02:49 10° N
ADEOS II 4.4 01:58:54 10° NE 02:02:12 17° E 02:05:29 10° SE
Meteor 1-11 4.4 02:00:23 25° S 02:03:39 66° E 02:09:15 10° NNE
NOSS 3-1 (A) 3.3 02:01:56 29° WSW 02:04:11 55° NW 02:09:38 10° NNE
Resurs 1-4 Rocket 3.5 02:08:00 10° NE 02:12:39 31° E 02:17:13 10° SSE
Cosmos 1140 Rocket 3.8 02:11:29 29° SW 02:13:50 52° WNW 02:18:49 10° N
Cosmos 1656 4.0 02:11:00 24° S 02:14:08 57° ESE 02:19:32 10° NNE
Cosmos 1346 Rocket 2.7 02:14:57 42° SW 02:15:54 59° W 02:19:30 10° N
H-2A R/B 3.6 02:13:37 10° NE 02:18:09 29° E 02:22:33 10° SSE
SL-4 R/B 3.5 02:15:45 11° WNW 02:18:11 24° NNW 02:20:48 10° NE
Cosmos 1605 Rocket 4.3 02:14:39 10° N 02:20:57 67° E 02:27:05 10° SSE
Cosmos 371 Rocket 3.2 02:23:01 29° SSW 02:25:32 79° WNW 02:30:23 10° NNE
Cosmos 1763 Rocket 3.4 02:22:04 10° NNW 02:27:10 90° SW 02:32:12 10° SSE
Cosmos 304 Rocket 3.9 02:25:25 28° SW 02:27:49 65° WNW 02:32:34 10° NNE
Cosmos 1809 Rocket 4.5 02:23:30 19° S 02:28:04 83° E 02:34:17 10° N
Lacrosse 4 Rocket 2.3 02:27:42 10° NW 02:31:17 28° WSW 02:31:50 27° SW
Cosmos 2297 Rocket 3.4 02:29:42 10° NNW 02:35:06 43° ENE 02:40:28 10° SE
Cosmos 2369 Rocket 4.3 02:33:40 10° W 02:37:03 16° NW 02:40:27 10° N
Cosmos 1535 Rocket 4.5 02:30:52 10° N 02:37:12 87° W 02:43:23 10° S
Cosmos 1025 Rocket 3.1 02:34:41 20° S 02:37:36 78° E 02:41:59 10° N
MOZ.5/SAFIR/RUBIN 5/SL-8 3.7 02:35:42 10° SSE 02:40:12 89° ENE 02:44:51 10° NNW
FENGYUN 3A 4.1 02:38:02 10° N 02:43:10 48° WNW 02:46:39 20° SW
Lacrosse 5 rocket 4.2 02:43:18 10° N 02:44:53 13° NNE 02:46:27 10° NE
CZ-2D R/B 2.7 02:40:09 10° NNE 02:45:32 56° E 02:50:45 10° S
ADEOS Rocket 3.7 02:42:55 10° N 02:48:43 40° WNW 02:52:44 17° SW
DMSP B5D2-2 4.0 02:45:56 10° S 02:51:11 80° WSW 02:56:28 10° NNW
ATLAS 3B R/B 4.1 02:45:58 10° S 02:52:41 36° ESE 02:59:39 10° NE
NOSS 2-2 (C) 3.5 02:50:37 10° NW 02:54:32 83° SW 02:59:58 10° SSE
ALOS 2.5 02:50:23 10° NNE 02:54:55 67° ESE 02:59:09 12° S
Cosmos 468 Rocket 4.0 02:52:59 10° NNW 02:58:07 83° ENE 03:03:13 10° SSE
SL-24 DEB 4.1 02:54:34 14° S 02:58:14 64° W 03:02:38 10° N
Cosmos 2360 4.2 02:54:41 18° SSW 02:59:02 75° WNW 03:04:46 10° NNE
Cosmos 1455 Rocket 4.0 03:01:38 10° N 03:05:50 49° ENE 03:10:02 10° SSE
Cosmos 405 Rocket 3.3 03:06:51 19° WSW 03:08:12 27° WNW 03:10:48 10° NNW
Cosmos 2292 Rocket 2.7 03:06:53 14° S 03:09:21 81° E 03:12:36 10° N
Cosmos 2084 Rocket 3.7 03:07:47 14° SSW 03:11:00 55° ESE 03:14:58 10° NE
Cosmos 374 Rocket 4.2 03:09:55 16° SW 03:13:07 88° SE 03:16:53 10° NE
Okean 2 Rocket 3.1 03:08:50 10° NNW 03:13:09 61° W 03:17:25 10° S
Envisat 3.2 03:08:53 10° N 03:13:51 57° WNW 03:18:23 12° SSW
Cosmos 546 4.4 03:10:55 10° WNW 03:14:42 75° SSW 03:18:27 10° SE
SeaSat 1 2.4 03:10:38 10° SSE 03:15:31 89° WSW 03:20:27 10° NNW
SJ 16-02 2.5 03:16:15 13° WSW 03:19:21 28° WNW 03:23:02 10° N
CENTAUR R/B 3.7 03:11:16 10° NW 03:19:40 73° NE 03:29:11 10° SE
Cosmos 1727 Rocket 4.0 03:13:30 10° S 03:19:45 87° W 03:26:00 10° N
Cosmos 2151 Rocket 4.3 03:17:41 10° NNW 03:21:47 36° W 03:25:52 10° SSW
BREEZE-M DEB (TANK) 4.2 03:13:31 10° W 03:23:57 44° NNW 03:27:16 10° ENE
USA 229 DEB 3.6 03:18:16 10° SSW 03:23:59 70° ESE 03:30:30 10° NE
USA 229 3.7 03:18:17 10° SSW 03:24:01 69° ESE 03:30:33 10° NE
Cosmos 292 Rocket 4.2 03:22:55 10° S 03:27:36 60° ESE 03:32:17 10° NNE
Cosmos 968 Rocket 4.2 03:22:45 10° S 03:27:48 53° ESE 03:32:55 10° NNE
Meteor 2-16 Rocket 4.5 03:21:57 10° SSW 03:28:02 78° W 03:34:09 10° N
Cosmos 1862 3.4 03:26:07 10° S 03:29:36 62° E 03:33:06 10° NNE
Cosmos 2221 Rocket 4.1 03:27:47 10° SSW 03:32:04 44° WNW 03:36:25 10° N
SL-16 R/B 3.6 03:26:31 10° SE 03:32:26 50° ENE 03:38:22 10° N
Cosmos 1459 Rocket 4.2 03:26:55 10° N 03:33:07 78° E 03:39:23 10° S
Cosmos 841 Rocket 3.6 03:28:16 10° NNW 03:33:30 84° ENE 03:38:40 10° SSE
Cosmos 2173 Rocket 4.1 03:27:49 10° N 03:34:11 85° E 03:40:25 10° S
METEOR-M 4.2 03:29:29 10° NNE 03:34:52 86° ESE 03:40:12 10° SSW
Cosmos 1190 Rocket 4.5 03:32:25 10° SW 03:37:29 49° WNW 03:42:33 10° N
Cosmos 1954 Rocket 4.3 03:34:27 10° SW 03:39:31 55° WNW 03:44:36 10° NNE
NOSS 2-2 (E) 3.7 03:36:47 10° NW 03:40:39 82° NE 03:46:00 10° SE
ADEOS II 2.2 03:37:00 10° N 03:42:10 64° WNW 03:47:19 10° SSW
SL-8 R/B 4.4 03:37:37 10° WNW 03:42:18 56° NNE 03:47:00 10° E
Cosmos 2100 Rocket 4.0 03:36:22 10° N 03:42:39 81° W 03:48:50 10° S
Cosmos 1697 Rocket 2.7 03:41:43 10° SSW 03:47:20 78° WNW 03:52:58 10° NNE
Sich 1 Rocket 4.4 03:43:39 10° NNW 03:47:45 34° W 03:51:49 10° SSW
Cosmos 2227 Rocket 2.7 03:43:17 10° NNW 03:48:55 67° ENE 03:54:30 10° SSE
Okean 1 Rocket 4.1 03:46:35 10° NNW 03:50:11 26° W 03:53:46 10° SW
